Header for Extended Forecast Station List Page

Search by: ID | Name | Date | Parm | Value | Avg | % Avg
Sort by: ID | Name | Date | Parm | Value | Avg | % Avg

Enter search or view all records.

Click on id for station plot
#IDNameDateParmValueAvg% Avg
0MAGI1BIG WOOD-MAGIC DAM04-12-2021INFLOW (KAF)4121719
1MACI1BIG LOST-MACKAY RESERVOIR NEAR MACKAY04-12-2021INFLOW (KAF)3815824
2HWRI1BIG LOST-AT HOWELL RANCH NEAR CHILLY04-12-2021DISCHARGE (KAF)4215826
3LWRI1LITTLE WOOD-LITTLE WOOD DAM04-12-2021INFLOW (KAF)227131
4OWYO3OWYHEE-OWYHEE DAM04-12-2021INFLOW (KAF)7424231
5HALI1BIG WOOD-AT HAILEY04-12-2021DISCHARGE (KAF)8522438
6PIHI1PORTNEUF-AT POCATELLO04-12-2021DISCHARGE (KAF)316945
7RIDI1WILLOW CREEK-RIRIE DAM04-12-2021INFLOW (KAF)193948
8ARAI1SF BOISE-ANDERSON RANCH DAM04-12-2021INFLOW (KAF)24148050
9BULO3BULLY CREEK-BULLY CREEK DAM04-12-2021INFLOW (KAF)1254
10EMMI1PAYETTE-NEAR EMMETT04-12-2021DISCHARGE (KAF)622114055
11ANAW1SNAKE-NEAR ANATONE04-12-2021DISCHARGE (KAF)72261240658
12WHBI1SALMON-AT WHITEBIRD04-12-2021DISCHARGE (KAF)3280554759
13BERO3MALHEUR-AGENCY VALLEY DAM04-12-2021INFLOW (KAF)203461
14DEDI1DEADWOOD-NEAR LOWMAN04-12-2021INFLOW (KAF)7912862
15HOTI1BRUNEAU-NEAR HOT SPRINGS04-12-2021DISCHARGE (KAF)10416663
16FCFM8NF FLATHEAD-NEAR COLUMBIA FALLS04-12-2021DISCHARGE (KAF)1008157264
17WEII1SNAKE-AT WEISER04-12-2021DISCHARGE (KAF)2879451564
18LGDW1SNAKE-LOWER GRANITE DAM04-12-2021INFLOW (KAF)121161883264
19LGSW1SNAKE-LITTLE GOOSE DAM04-12-2021INFLOW (KAF)120611884564
20LMNW1SNAKE-LOWER MONUMENTAL DAM04-12-2021INFLOW (KAF)121751890964
21IHDW1SNAKE-ICE HARBOR DAM04-12-2021INFLOW (KAF)121781878965
22SWAI1SNAKE-BELOW SWAN FALLS04-12-2021DISCHARGE (KAF)1502227866
23CSDI1NF PAYETTE-CASCADE DAM04-12-2021INFLOW (KAF)30345666
24BRNI1SNAKE-BROWNLEE DAM04-12-2021INFLOW (KAF)3208486866
25PRTI1PRIEST-NEAR PRIEST RIVER04-12-2021DISCHARGE (KAF)49873468
26LLKW1SPOKANE-AT LONGLAKE04-12-2021INFLOW (KAF)1879277268
27ALPW4SNAKE-NEAR ALPINE04-12-2021DISCHARGE (KAF)1395204368
28PLDI1SF SNAKE-PALISADES DAM04-12-2021INFLOW (KAF)1983293268
29JLKW4SNAKE-JACKSON LAKE AT DAM04-12-2021INFLOW (KAF)51775369
30WSRI1WEISER-NEAR WEISER04-12-2021DISCHARGE (KAF)22032069
31LEOI1KOOTENAI-AT LEONIA04-12-2021DISCHARGE (KAF)3685523770
32NOXM8CLARK FORK-NOXON RAPIDS DAM04-12-2021INFLOW (KAF)6069860471
33SATI1ST MARIES-NEAR SANTA04-12-2021DISCHARGE (KAF)8011371
34ALFW1PEND OREILLE-ALBENI FALLS DAM04-12-2021INFLOW (KAF)76071058972
35CABI1CLARK FORK-CABINET GORGE DAM04-12-2021INFLOW (KAF)6684911773
36GCDW1COLUMBIA-GRAND COULEE DAM04-12-2021INFLOW (KAF)302374158673
37IPDI1HENRYS FORK-ISLAND PARK DAM04-12-2021INFLOW (KAF)15120773
38JKSW4SNAKE-NEAR JACKSON04-12-2021DISCHARGE (KAF)1149158173
39SNAI1SNAKE-AT BLACKFOOT04-12-2021DISCHARGE (KAF)1291177673
40WRMO3MALHEUR-WARM SPRINGS DAM04-12-2021INFLOW (KAF)202773
41MCDW1COLUMBIA-MCNARY DAM04-12-2021INFLOW (KAF)456036289373
42JDAO3COLUMBIA-JOHN DAY DAM04-12-2021INFLOW (KAF)471896472673
43KERM8FLATHEAD-SELI’Š KSANKA QLISPE’ DAM04-12-2021INFLOW (KAF)3739508274
44BFTI1SNAKE-NEAR BLACKFOOT04-12-2021DISCHARGE (KAF)1242167274
45AFRI1SNAKE-AMERICAN FALLS RESERVOIR04-12-2021INFLOW (KAF)1742229676
46SPDI1CLEARWATER-AT SPALDING04-12-2021DISCHARGE (KAF)4890641476
47MYKO3MCKAY CREEK-NEAR PILOT ROCK04-12-2021DISCHARGE (KAF)111576
48PRWW1COLUMBIA-PRIEST RAPIDS DAM04-12-2021INFLOW (KAF)325624220277
49COEI1COEUR D ALENE-COEUR D ALENE LAKE04-12-2021INFLOW (KAF)1756226478
50LAUW1KETTLE-AT LAURIER04-12-2021DISCHARGE (KAF)1316167978
51SERO3JOHN DAY-AT SERVICE CK04-12-2021DISCHARGE (KAF)51566078
52SRGM8CLARK FORK-AT ST REGIS04-12-2021DISCHARGE (KAF)2742346179
53WANW1COLUMBIA-WANAPUM DAM04-12-2021INFLOW (KAF)325664138279
54CHEI1FALL RIVER-NEAR CHESTER04-12-2021DISCHARGE (KAF)24530879
55REXI1HENRYS FORK-AT REXBURG04-12-2021DISCHARGE (KAF)55370179
56SHYI1SNAKE-NEAR SHELLEY04-12-2021DISCHARGE (KAF)1808225880
57DWRI1NF CLEARWATER-DWORSHAK DAM04-12-2021INFLOW (KAF)1987245781
58BONO3COLUMBIA-BONNEVILLE DAM04-12-2021INFLOW (KAF)482155984381
59LYDM8KOOTENAI-LIBBY DAM04-12-2021INFLOW (KAF)4686572782
60HHWM8SF FLATHEAD-HUNGRY HORSE DAM04-12-2021INFLOW (KAF)1537186982
61CFMM8FLATHEAD-AT COLUMBIA FALLS04-12-2021DISCHARGE (KAF)3337408082
62STRM8ST. REGIS-NEAR ST. REGIS04-12-2021DISCHARGE (KAF)19223582
63TDAO3COLUMBIA-THE DALLES DAM04-12-2021INFLOW (KAF)473565803582
64BONM8BLACKFOOT-NEAR BONNER04-12-2021DISCHARGE (KAF)64377883
65ABOM8CLARK FORK-ABOVE MISSOULA04-12-2021DISCHARGE (KAF)1141137483
66TEAI1TETON-NEAR ST. ANTHONY04-12-2021DISCHARGE (KAF)28233883
67BELM8CLARK FORK-BELOW MISSOULA04-12-2021DISCHARGE (KAF)2176259184
68SIFI1SNAKE-AB EAGLE ROCK NR IDAHO FALLS04-12-2021DISCHARGE (KAF)2057245984
69ORFI1CLEARWATER-AT OROFINO04-12-2021DISCHARGE (KAF)3581427884
70WGCM8MF FLATHEAD-NEAR WEST GLACIER04-12-2021DISCHARGE (KAF)1300152985
71BIGI1BOISE-AT GLENWOOD BRIDGE04-12-2021DISCHARGE (KAF)38144685
72UNDW1WHITE SALMON-NEAR UNDERWOOD04-12-2021DISCHARGE (KAF)25629686
73PARI1BOISE-NEAR PARMA04-12-2021DISCHARGE (KAF)35040287
74MONO3NF JOHN DAY-AT MONUMENT04-12-2021DISCHARGE (KAF)41047287
75BITM8BITTERROOT-NEAR MISSOULA04-12-2021DISCHARGE (KAF)1040117788
76CHJW1COLUMBIA-CHIEF JOSEPH DAM04-12-2021INFLOW (KAF)276683142288
77TRYO3GRANDE RONDE-TROY04-12-2021DISCHARGE (KAF)975110488
78WELW1COLUMBIA-WELLS DAM04-12-2021INFLOW (KAF)301923403489
79ANTI1HENRYS FORK-AT ST. ANTHONY04-12-2021DISCHARGE (KAF)54560989
80DLGM8CLARK FORK-AT DEER LODGE04-12-2021DISCHARGE (KAF)677590
81RRHW1COLUMBIA-ROCKY REACH DAM04-12-2021INFLOW (KAF)310533457390
82MODO3DESCHUTES-AT MOODY NR BIGGS04-12-2021DISCHARGE (KAF)1170130590
83PITW1KLICKITAT-NEAR PITT04-12-2021DISCHARGE (KAF)39843891
84HEII1SNAKE-NEAR HEISE04-12-2021DISCHARGE (KAF)2848302294
85TCHW1WALLA WALLA-NEAR TOUCHET04-12-2021DISCHARGE (KAF)888999
86HODO3HOOD-NEAR TUCKER BRIDGE04-12-2021DISCHARGE (KAF)197197100
87KIOW1YAKIMA-AT KIONA04-12-2021DISCHARGE (KAF)796780102
88RCCM8ROCK CREEK-NEAR CLINTON04-12-2021DISCHARGE (KAF)259252103
89UMTW1YAKIMA-AT UMTANUM04-12-2021DISCHARGE (KAF)847791107
90PESW1WENATCHEE-AT PESHASTIN04-12-2021DISCHARGE (KAF)14841376108
91BUDW1BUMPING-BUMPING LAKE DAM04-12-2021INFLOW (KAF)117109108
92CHDW1CHELAN-LAKE CHELAN DAM04-12-2021INFLOW (KAF)1067973110
93PATW1METHOW-NEAR PATEROS04-12-2021DISCHARGE (KAF)921821112
94ARDW1ENTIAT-NEAR ARDENVOIR04-12-2021DISCHARGE (KAF)219193113
95RILW1TIETON-RIMROCK LAKE NEAR RIMROCK04-12-2021INFLOW (KAF)208185113
96TONW1OKANOGAN-NEAR TONASKET04-12-2021DISCHARGE (KAF)16021411114
97EASW1YAKIMA-AT EASTON04-12-2021DISCHARGE (KAF)10993117
98KADW1KACHESS-KACHESS DAM04-12-2021INFLOW (KAF)11295118
99CLFW1NACHES-NEAR CLIFFDEL04-12-2021DISCHARGE (KAF)404338120
100NACW1NACHES-NEAR NACHES04-12-2021DISCHARGE (KAF)563469120
101KEDW1YAKIMA-KEECHELUS LAKE04-12-2021INFLOW (KAF)127102124
102PARW1YAKIMA-NEAR PARKER04-12-2021DISCHARGE (KAF)525422124
103CLUW1CLE ELUM-CLE ELUM LAKE04-12-2021INFLOW (KAF)457361127
104TNAW1TEANAWAY-BELOW FORKS04-12-2021DISCHARGE (KAF)137100138
105GIBO3UMATILLA-NEAR GIBBON04-12-2021DISCHARGE (KAF)8157143
106PDTO3UMATILLA-AT PENDLETON04-12-2021DISCHARGE (KAF)157106148
107UMAO3UMATILLA-NEAR UMATILLA04-12-2021DISCHARGE (KAF)12658218
108BFEI1KOOTENAI-AT BONNERS FERRY04-12-2021STAGE (FT)MMM
109DRMM8CLARK FORK-NR DRUMMOND04-12-2021DISCHARGE (KAF)193MM
110HOPI1PEND OREILLE-PEND OREILLE LAKE NR HOPE04-12-2021LAKE ELEVATION (FT)MMM
111SPOW1SPOKANE-AT SPOKANE04-12-2021DISCHARGE (KAF)1694MM
112SJMI1ST JOE-AT ST MARIES04-12-2021STAGE (FT)MMM
113CIBW1COLUMBIA-AT INTL BOUNDARY04-12-2021DISCHARGE (KAF)26985MM
114MILI1SNAKE-AT MILNER04-12-2021DISCHARGE (KAF)M321M
115LUCI1BOISE-LUCKY PEAK DAM04-12-2021INFLOW (KAF)1032MM